AirNav   Air Wisconsin Up To $57,000 Bonus
 
 1511 users online  

2G6 Mc Laughlin Seaplane Base
Chester, Virginia, USA

GOING TO CHESTER?


FAA INFORMATION EFFECTIVE 22 APRIL 2021

Location

FAA Identifier: 2G6
Lat/Long: 37-19-14.0000N 077-20-45.0000W
37-19.233333N 077-20.750000W
37.3205556,-77.3458333
(estimated)
Elevation: 7 ft. / 2 m
Variation: 10W (2000)
From city: 6 miles E of CHESTER, VA
Time zone: UTC -4 (UTC -5 during Standard Time)
Zip code: 23836

Seaplane Base Operations

Seaplane Base use: Open to the public
Activation date: 12/2001
Control tower: no
ARTCC: WASHINGTON CENTER
FSS: LEESBURG FLIGHT SERVICE STATION
NOTAMs facility: DCA (NOTAM-D service available)
Attendance: UNATNDD
Segmented circle: no

Seaplane Base Communications

CTAF: 122.9
WX AWOS-3PT at FCI (10 nm NW): 128.625 (804-271-8426)
WX ASOS at RIC (11 nm N): PHONE 804-236-1091
WX AWOS-3 at PTB (11 nm SW): 133.325 (804-861-5551)
WX AWOS-3 at W96 (15 nm NE): 119.875 (804-932-8863)

Nearby radio navigation aids

VOR radial/distance  VOR name  Freq  Var
RICr195/11.0RICHMOND VORTAC114.1009W
HPWr273/11.0HOPEWELL VORTAC112.0006W
FAKr124/26.2FLAT ROCK VORTAC113.3006W
HCMr263/31.2HARCUM VORTAC108.8007W
FKNr345/39.7FRANKLIN VORTAC110.6009W

 
NDB name  Hdg/Dist  Freq  Var  ID
WAKEFIELD332/26.127411WAKQ .- -.- --.-
BLACKSTONE080/35.332609WBKT -... -.- -

Seaplane Base Services

Runway Information

Runway 5W/23W

Dimensions: 2500 x 150 ft. / 762 x 46 m
Surface: water
RUNWAY 5W  RUNWAY 23W
Traffic pattern: rightleft

Seaplane Base Ownership and Management from official FAA records

Ownership: Privately-owned
Owner: BARNEY MCLAUGHLIN
1011 E. BROADWAY
HOPEWELL,, VA 23860
Phone 804-541-1011
Manager: BARNEY MCLAUGHLIN
1011 E. BROADWAY
HOPEWELL, VA 23860
Phone 804-541-1011

Additional Remarks

FOR CD CTC POTOMAC APCH AT 866-640-4124.

Instrument Procedures

There are no published instrument procedures at 2G6.

Some nearby airports with instrument procedures:

KFCI - Richmond Executive-Chesterfield County Airport (10 nm NW)
KRIC - Richmond International Airport (11 nm N)
KPTB - Dinwiddie County Airport (11 nm SW)
W96 - New Kent County Airport (15 nm NE)
KOFP - Hanover County Municipal Airport (24 nm N)
 
Loc | Ops | Rwys | IFR | FBO | Links
Com | Nav | Svcs | Stats | Notes
Area around 2G6 (Mc Laughlin Seaplane Base)
 
Road maps at: MapQuest Bing Google
 
Aerial photo
No photo
 
Sectional chart

 
Airport distance calculator
Flying to Mc Laughlin Seaplane Base? Find the distance to fly.

From to 2G6

Sunrise and sunset
Times for 10-May-2021
 Local
(UTC-4)
 Zulu
(UTC)
Morning civil twilight05:3709:37
Sunrise06:0610:06
Sunset20:0600:06
Evening civil twilight20:3400:34

Current date and time
Zulu (UTC)  10-May-2021 21:22:42
Local (UTC-4)  10-May-2021 17:22:42
 
METAR
KFCI 
10nm NW 
101756Z AUTO 35007KT 10SM OVC027 13/09 A2998 RMK AO2 RAB17E47 SLP162 6//// T01330089 10189 20128 51012 PNO $
KRIC 
12nm N 
102054Z VRB04KT 10SM FEW033 SCT045 18/09 A2996 RMK AO2 SLP147 T01830089 58007
KPTB 
12nm SW 
102055Z AUTO 03006KT 10SM BKN028 OVC043 16/10 A2997 RMK AO2 T01640095
KW96 
15nm NE 
102055Z AUTO 04004KT 10SM OVC046 16/09 A2996 RMK AO1 T01600089
TAF
KRIC 
12nm N 
101737Z 1018/1118 01009KT P6SM OVC025 FM101900 01008KT P6SM BKN035 FM102300 03006KT P6SM SCT120 FM110600 02004KT P6SM BKN120
NOTAMs
Click for the latest NOTAMs
NOTAMs are issued by the DoD/FAA and will open in a separate window not controlled by AirNav.

 

 
 

Would you like to see your business listed on this page?

 If your business provides an interesting product or service to pilots, flight crews, aircraft, or users of the Mc Laughlin Seaplane Base, you should consider listing it here.  To start the listing process, click on the button below
 
Add a business
 

Other Pages about Mc Laughlin Seaplane Base

Update a link
 
Copyright © AirNav, LLC. All rights reserved. Privacy Policy  Contact